Location: Serpentine
(32.3617°S, 115.9768°E)
Time: 11:13:06
(UTC+08:00)

X-37B - Pass Details

Date: 14 December 2021
Orbit: 334 x 337 km, 45.0° (Epoch: 11 January)

Event Time Altitude Azimuth Distance (km) Brightness Sun altitude
Exits shadow 03:51:16 10° 246° (WSW) 1,294 3.0 -13.4°
Reaches altitude 10° 03:51:17 10° 246° (WSW) 1,293 3.0 -13.4°
Maximum altitude 03:53:17 17° 202° (SSW) 976 2.8 -13.1°
Drops below altitude 10° 03:55:18 10° 158° (SSE) 1,300 4.2 -12.8°
Sets 03:57:47 0° 136° (SE) 2,144 6.3 -12.4°
